| time (UTC) | temp F | wind direction | speed MPH | gust MPH | rain 1hr in | rain 24hr in | rain mn in | humidity % | barometer mb |
| 20260509111112 | 51 | 164 | 0.0 | 0.0 | 0.00 | 0.00 | 0.00 | 54 | 1011.5 |
| 20260509110611 | 51 | 154 | 0.0 | 0.0 | 0.00 | 0.00 | 0.00 | 54 | 1011.5 |
| 20260509110137 | 51 | 166 | 0.0 | 0.0 | 0.00 | 0.00 | 0.00 | 54 | 1011.5 |
| 20260509105636 | 51 | 167 | 0.0 | 0.0 | 0.00 | 0.00 | 0.00 | 54 | 1011.9 |
| 20260509105142 | 51 | 166 | 0.0 | 0.0 | 0.00 | 0.00 | 0.00 | 54 | 1011.5 |
| 20260509104641 | 51 | 157 | 0.0 | 0.0 | 0.00 | 0.00 | 0.00 | 53 | 1011.5 |
| 20260509104141 | 51 | 166 | 0.0 | 0.0 | 0.00 | 0.00 | 0.00 | 53 | 1011.5 |
| 20260509103710 | 51 | 147 | 0.0 | 0.0 | 0.00 | 0.00 | 0.00 | 53 | 1011.5 |
| 20260509103213 | 51 | 145 | 0.0 | 0.0 | 0.00 | 0.00 | 0.00 | 53 | 1011.2 |
| 20260509102713 | 52 | 181 | 0.0 | 0.0 | 0.00 | 0.00 | 0.00 | 53 | 1011.5 |
| 20260509102214 | 52 | 140 | 0.0 | 0.0 | 0.00 | 0.00 | 0.00 | 52 | 1011.5 |
| 20260509101712 | 52 | 234 | 0.0 | 0.0 | 0.00 | 0.00 | 0.00 | 52 | 1011.5 |
| 20260509101240 | 52 | 234 | 0.0 | 0.0 | 0.00 | 0.00 | 0.00 | 52 | 1011.9 |
| 20260509100739 | 52 | 234 | 1.0 | 1.0 | 0.00 | 0.00 | 0.00 | 52 | 1011.5 |
| 20260509100237 | 52 | 152 | 0.0 | 0.0 | 0.00 | 0.00 | 0.00 | 52 | 1011.2 |
| 20260509095742 | 52 | 152 | 0.0 | 0.0 | 0.00 | 0.00 | 0.00 | 52 | 1011.2 |
| 20260509095312 | 52 | 152 | 0.0 | 0.0 | 0.00 | 0.00 | 0.00 | 51 | 1011.2 |
| 20260509094810 | 52 | 152 | 0.0 | 0.0 | 0.00 | 0.00 | 0.00 | 51 | 1011.2 |
| 20260509094313 | 52 | 152 | 0.0 | 0.0 | 0.00 | 0.00 | 0.00 | 50 | 1011.2 |
| 20260509093839 | 52 | 152 | 0.0 | 0.0 | 0.00 | 0.00 | 0.00 | 50 | 1011.2 |
| 20260509093409 | 53 | 152 | 0.0 | 0.0 | 0.00 | 0.00 | 0.00 | 50 | 1011.2 |
| 20260509092910 | 53 | 158 | 0.0 | 0.0 | 0.00 | 0.00 | 0.00 | 50 | 1010.8 |
| 20260509092414 | 53 | 159 | 0.0 | 0.0 | 0.00 | 0.00 | 0.00 | 50 | 1010.8 |
| 20260509091912 | 53 | 156 | 0.0 | 0.0 | 0.00 | 0.00 | 0.00 | 50 | 1010.8 |
| 20260509091412 | 53 | 157 | 0.0 | 0.0 | 0.00 | 0.00 | 0.00 | 50 | 1010.8 |
| 20260509090917 | 53 | 119 | 2.0 | 2.0 | 0.00 | 0.00 | 0.00 | 49 | 1011.2 |
| 20260509090414 | 53 | 154 | 1.0 | 1.0 | 0.00 | 0.00 | 0.00 | 49 | 1011.2 |
| 20260509085915 | 53 | 75 | 2.0 | 2.0 | 0.00 | 0.00 | 0.00 | 49 | 1010.8 |
| 20260509085414 | 53 | 101 | 1.0 | 2.0 | 0.00 | 0.00 | 0.00 | 48 | 1011.2 |
| 20260509084917 | 53 | 106 | 3.0 | 3.0 | 0.00 | 0.00 | 0.00 | 48 | 1010.8 |
| 20260509084418 | 53 | 131 | 1.0 | 2.0 | 0.00 | 0.00 | 0.00 | 48 | 1011.2 |
| 20260509083915 | 53 | 128 | 1.0 | 2.0 | 0.00 | 0.00 | 0.00 | 48 | 1011.2 |
| 20260509083416 | 53 | 132 | 2.0 | 3.0 | 0.00 | 0.00 | 0.00 | 48 | 1011.2 |
| 20260509082915 | 53 | 134 | 0.0 | 1.0 | 0.00 | 0.00 | 0.00 | 49 | 1011.2 |
| 20260509082414 | 54 | 162 | 0.0 | 0.0 | 0.00 | 0.00 | 0.00 | 50 | 1010.8 |
| 20260509081916 | 54 | 119 | 0.0 | 1.0 | 0.00 | 0.00 | 0.00 | 49 | 1010.8 |
| 20260509081415 | 54 | 158 | 0.0 | 0.0 | 0.00 | 0.00 | 0.00 | 49 | 1010.8 |
| 20260509080915 | 54 | 157 | 0.0 | 0.0 | 0.00 | 0.00 | 0.00 | 49 | 1010.8 |
| 20260509080413 | 54 | 91 | 1.0 | 1.0 | 0.00 | 0.00 | 0.00 | 49 | 1011.2 |
| 20260509075915 | 55 | 132 | 0.0 | 1.0 | 0.00 | 0.00 | 0.00 | 48 | 1011.2 |
| 20260509075413 | 55 | 119 | 1.0 | 2.0 | 0.00 | 0.00 | 0.00 | 48 | 1011.2 |
| 20260509074915 | 55 | 127 | 0.0 | 1.0 | 0.00 | 0.00 | 0.00 | 47 | 1011.2 |
| 20260509074413 | 55 | 128 | 2.0 | 2.0 | 0.00 | 0.00 | 0.00 | 47 | 1011.2 |
| 20260509073915 | 55 | 127 | 0.0 | 1.0 | 0.00 | 0.00 | 0.00 | 47 | 1010.8 |
| 20260509073414 | 55 | 110 | 1.0 | 2.0 | 0.00 | 0.00 | 0.00 | 47 | 1010.8 |
| 20260509072916 | 55 | 128 | 0.0 | 1.0 | 0.00 | 0.00 | 0.00 | 47 | 1010.8 |
| 20260509072416 | 55 | 136 | 0.0 | 1.0 | 0.00 | 0.00 | 0.00 | 47 | 1010.8 |
| 20260509071914 | 56 | 119 | 1.0 | 2.0 | 0.00 | 0.00 | 0.00 | 47 | 1010.8 |
| 20260509071413 | 56 | 117 | 2.0 | 2.0 | 0.00 | 0.00 | 0.00 | 46 | 1010.8 |
| 20260509070915 | 56 | 116 | 3.0 | 3.0 | 0.00 | 0.00 | 0.00 | 47 | 1010.8 |
| 20260509070416 | 56 | 133 | 0.0 | 1.0 | 0.00 | 0.00 | 0.00 | 47 | 1010.8 |
| 20260509065842 | 56 | 119 | 2.0 | 3.0 | 0.00 | 0.00 | 0.00 | 46 | 1010.8 |
| 20260509065342 | 56 | 118 | 2.0 | 2.0 | 0.00 | 0.00 | 0.00 | 46 | 1010.8 |
| 20260509064838 | 57 | 122 | 1.0 | 1.0 | 0.00 | 0.00 | 0.00 | 46 | 1010.8 |
| 20260509064340 | 57 | 90 | 0.0 | 1.0 | 0.00 | 0.00 | 0.00 | 45 | 1010.8 |
| 20260509063837 | 57 | 96 | 1.0 | 1.0 | 0.00 | 0.00 | 0.00 | 45 | 1010.8 |
| 20260509063338 | 57 | 113 | 2.0 | 2.0 | 0.00 | 0.00 | 0.00 | 45 | 1010.8 |
| 20260509062840 | 57 | 120 | 2.0 | 2.0 | 0.00 | 0.00 | 0.00 | 44 | 1010.8 |
| 20260509062344 | 57 | 83 | 0.0 | 1.0 | 0.00 | 0.00 | 0.00 | 44 | 1010.8 |
| 20260509061841 | 57 | 114 | 0.0 | 1.0 | 0.00 | 0.00 | 0.00 | 44 | 1010.8 |
| 20260509061341 | 57 | 140 | 0.0 | 0.0 | 0.00 | 0.00 | 0.00 | 44 | 1010.8 |
| 20260509060845 | 57 | 153 | 0.0 | 1.0 | 0.00 | 0.00 | 0.00 | 44 | 1010.8 |
| 20260509060342 | 58 | 152 | 0.0 | 0.0 | 0.00 | 0.00 | 0.00 | 44 | 1010.8 |
| 20260509055813 | 58 | 114 | 0.0 | 1.0 | 0.00 | 0.00 | 0.00 | 43 | 1010.8 |
| 20260509055311 | 58 | 125 | 2.0 | 3.0 | 0.00 | 0.00 | 0.00 | 43 | 1010.8 |
| 20260509054811 | 58 | 157 | 0.0 | 0.0 | 0.00 | 0.00 | 0.00 | 43 | 1010.8 |
| 20260509054312 | 58 | 135 | 0.0 | 1.0 | 0.00 | 0.00 | 0.00 | 43 | 1010.5 |
| 20260509053812 | 58 | 128 | 2.0 | 2.0 | 0.00 | 0.00 | 0.00 | 43 | 1010.5 |
| 20260509053311 | 58 | 157 | 0.0 | 1.0 | 0.00 | 0.00 | 0.00 | 42 | 1010.5 |
| 20260509052814 | 59 | 135 | 1.0 | 2.0 | 0.00 | 0.00 | 0.00 | 42 | 1010.5 |
| 20260509052312 | 59 | 75 | 0.0 | 1.0 | 0.00 | 0.00 | 0.00 | 42 | 1010.5 |
| 20260509051812 | 59 | 118 | 2.0 | 3.0 | 0.00 | 0.00 | 0.00 | 42 | 1010.5 |
| 20260509051310 | 59 | 121 | 1.0 | 1.0 | 0.00 | 0.00 | 0.00 | 42 | 1010.5 |
| 20260509050810 | 59 | 168 | 2.0 | 2.0 | 0.00 | 0.00 | 0.00 | 41 | 1010.5 |
| 20260509050312 | 59 | 105 | 5.0 | 7.0 | 0.00 | 0.00 | 0.00 | 41 | 1010.5 |
| 20260509045812 | 59 | 146 | 0.0 | 1.0 | 0.00 | 0.00 | 0.00 | 41 | 1010.5 |
| 20260509045312 | 59 | 152 | 0.0 | 1.0 | 0.00 | 0.00 | 0.00 | 41 | 1010.5 |
| 20260509044810 | 60 | 148 | 3.0 | 3.0 | 0.00 | 0.00 | 0.00 | 40 | 1010.2 |
| 20260509044311 | 60 | 118 | 3.0 | 5.0 | 0.00 | 0.00 | 0.00 | 40 | 1010.2 |
| 20260509043811 | 60 | 86 | 2.0 | 2.0 | 0.00 | 0.00 | 0.00 | 40 | 1010.2 |
| 20260509043312 | 60 | 129 | 1.0 | 2.0 | 0.00 | 0.00 | 0.00 | 40 | 1010.5 |
| 20260509042809 | 60 | 152 | 0.0 | 0.0 | 0.00 | 0.00 | 0.00 | 40 | 1010.2 |
| 20260509042310 | 60 | 157 | 0.0 | 0.0 | 0.00 | 0.00 | 0.00 | 40 | 1010.2 |
| 20260509041814 | 60 | 112 | 1.0 | 1.0 | 0.00 | 0.00 | 0.00 | 40 | 1010.2 |
| 20260509041314 | 60 | 185 | 1.0 | 1.0 | 0.00 | 0.00 | 0.00 | 40 | 1010.2 |
| 20260509040810 | 60 | 116 | 0.0 | 1.0 | 0.00 | 0.00 | 0.00 | 40 | 1010.2 |
| 20260509040313 | 60 | 85 | 2.0 | 5.0 | 0.00 | 0.00 | 0.00 | 40 | 1010.2 |
| 20260509035813 | 60 | 137 | 0.0 | 1.0 | 0.00 | 0.00 | 0.00 | 40 | 1009.8 |
| 20260509035311 | 60 | 122 | 1.0 | 1.0 | 0.00 | 0.00 | 0.00 | 39 | 1009.8 |
| 20260509034812 | 61 | 138 | 2.0 | 2.0 | 0.00 | 0.00 | 0.00 | 39 | 1009.8 |
| 20260509034310 | 61 | 157 | 1.0 | 2.0 | 0.00 | 0.00 | 0.00 | 39 | 1010.2 |
| 20260509033812 | 61 | 123 | 0.0 | 1.0 | 0.00 | 0.00 | 0.00 | 39 | 1009.8 |
| 20260509033339 | 61 | 93 | 2.0 | 3.0 | 0.00 | 0.00 | 0.00 | 38 | 1009.8 |
| 20260509032839 | 61 | 125 | 2.0 | 3.0 | 0.00 | 0.00 | 0.00 | 39 | 1009.5 |
| 20260509032341 | 61 | 86 | 4.0 | 5.0 | 0.00 | 0.00 | 0.00 | 38 | 1009.8 |
| 20260509031828 | 61 | 150 | 0.0 | 1.0 | 0.00 | 0.00 | 0.00 | 38 | 1009.8 |
| 20260509031326 | 61 | 132 | 1.0 | 2.0 | 0.00 | 0.00 | 0.00 | 38 | 1009.5 |
| 20260509030827 | 62 | 24 | 2.0 | 3.0 | 0.00 | 0.00 | 0.00 | 38 | 1009.1 |
| 20260509030326 | 62 | 127 | 0.0 | 1.0 | 0.00 | 0.00 | 0.00 | 38 | 1009.1 |
| 20260509025825 | 62 | 51 | 1.0 | 2.0 | 0.00 | 0.00 | 0.00 | 37 | 1009.1 |
| 20260509025325 | 62 | 187 | 1.0 | 1.0 | 0.00 | 0.00 | 0.00 | 38 | 1009.1 |
| 20260509024825 | 62 | 180 | 0.0 | 0.0 | 0.00 | 0.00 | 0.00 | 38 | 1008.8 |
| 20260509024330 | 62 | 30 | 0.0 | 1.0 | 0.00 | 0.00 | 0.00 | 37 | 1009.1 |
| 20260509023827 | 62 | 137 | 0.0 | 1.0 | 0.00 | 0.00 | 0.00 | 37 | 1008.8 |
| 20260509023326 | 62 | 167 | 0.0 | 1.0 | 0.00 | 0.00 | 0.00 | 37 | 1009.1 |
| 20260509022825 | 62 | 271 | 1.0 | 1.0 | 0.00 | 0.00 | 0.00 | 37 | 1008.8 |
| 20260509022326 | 62 | 85 | 3.0 | 5.0 | 0.00 | 0.00 | 0.00 | 37 | 1008.8 |
| 20260509021825 | 63 | 93 | 2.0 | 2.0 | 0.00 | 0.00 | 0.00 | 37 | 1008.8 |
| 20260509021323 | 63 | 83 | 1.0 | 1.0 | 0.00 | 0.00 | 0.00 | 37 | 1008.8 |
| 20260509020823 | 63 | 130 | 2.0 | 3.0 | 0.00 | 0.00 | 0.00 | 37 | 1008.5 |
| 20260509020324 | 63 | 72 | 6.0 | 8.0 | 0.00 | 0.00 | 0.00 | 37 | 1008.8 |
| 20260509015824 | 63 | 84 | 4.0 | 6.0 | 0.00 | 0.00 | 0.00 | 36 | 1008.5 |
| 20260509015324 | 63 | 92 | 5.0 | 8.0 | 0.00 | 0.00 | 0.00 | 37 | 1008.5 |
| 20260509014824 | 63 | 117 | 1.0 | 2.0 | 0.00 | 0.00 | 0.00 | 37 | 1008.5 |
| 20260509014325 | 63 | 207 | 3.0 | 5.0 | 0.00 | 0.00 | 0.00 | 37 | 1008.5 |
| 20260509013823 | 64 | 73 | 3.0 | 3.0 | 0.00 | 0.00 | 0.00 | 37 | 1008.5 |
| 20260509013323 | 64 | 28 | 3.0 | 5.0 | 0.00 | 0.00 | 0.00 | 36 | 1008.5 |
| 20260509012824 | 64 | 102 | 4.0 | 5.0 | 0.00 | 0.00 | 0.00 | 36 | 1008.5 |
| 20260509012323 | 64 | 131 | 6.0 | 8.0 | 0.00 | 0.00 | 0.00 | 36 | 1008.1 |
| 20260509011825 | 64 | 0 | 2.0 | 3.0 | 0.00 | 0.00 | 0.00 | 36 | 1008.5 |
| 20260509011323 | 65 | 185 | 0.0 | 1.0 | 0.00 | 0.00 | 0.00 | 36 | 1008.5 |
| 20260509010841 | 65 | 4 | 4.0 | 9.0 | 0.00 | 0.00 | 0.00 | 36 | 1008.1 |
| 20260509010342 | 65 | 106 | 5.0 | 8.0 | 0.00 | 0.00 | 0.00 | 36 | 1008.1 |
| 20260509005841 | 65 | 111 | 0.0 | 1.0 | 0.00 | 0.00 | 0.00 | 36 | 1008.5 |
| 20260509005338 | 66 | 41 | 3.0 | 3.0 | 0.00 | 0.00 | 0.00 | 36 | 1008.1 |
| 20260509004838 | 66 | 70 | 1.0 | 2.0 | 0.00 | 0.00 | 0.00 | 36 | 1008.1 |
| 20260509004341 | 66 | 207 | 1.0 | 3.0 | 0.00 | 0.00 | 0.00 | 35 | 1008.1 |
| 20260509003840 | 66 | 46 | 0.0 | 1.0 | 0.00 | 0.00 | 0.00 | 35 | 1008.1 |
| 20260509003340 | 66 | 20 | 3.0 | 6.0 | 0.00 | 0.00 | 0.00 | 35 | 1008.1 |
| 20260509002838 | 67 | 19 | 3.0 | 3.0 | 0.00 | 0.00 | 0.00 | 34 | 1008.1 |
| 20260509002342 | 67 | 138 | 2.0 | 2.0 | 0.00 | 0.00 | 0.00 | 34 | 1008.1 |
| 20260509001841 | 67 | 107 | 2.0 | 3.0 | 0.00 | 0.00 | 0.00 | 34 | 1007.8 |
| 20260509001341 | 67 | 276 | 2.0 | 3.0 | 0.00 | 0.00 | 0.00 | 33 | 1008.1 |
| 20260509000826 | 67 | 158 | 3.0 | 6.0 | 0.00 | 0.00 | 0.00 | 33 | 1008.1 |
| 20260509000326 | 67 | 116 | 2.0 | 3.0 | 0.00 | 0.00 | 0.00 | 34 | 1008.1 |
| 20260508235827 | 67 | 42 | 3.0 | 5.0 | 0.00 | 0.00 | 0.00 | 34 | 1008.1 |
| 20260508235322 | 67 | 323 | 2.0 | 6.0 | 0.00 | 0.00 | 0.00 | 34 | 1008.1 |
| 20260508234821 | 68 | 50 | 1.0 | 2.0 | 0.00 | 0.00 | 0.00 | 34 | 1008.1 |
| 20260508234322 | 68 | 337 | 1.0 | 2.0 | 0.00 | 0.00 | 0.00 | 33 | 1007.8 |
| 20260508233821 | 68 | 194 | 2.0 | 3.0 | 0.00 | 0.00 | 0.00 | 33 | 1008.1 |
| 20260508233322 | 68 | 260 | 4.0 | 7.0 | 0.00 | 0.00 | 0.00 | 33 | 1007.8 |
| 20260508232821 | 68 | 144 | 3.0 | 3.0 | 0.00 | 0.00 | 0.00 | 33 | 1008.1 |
| 20260508232318 | 68 | 168 | 4.0 | 5.0 | 0.00 | 0.00 | 0.00 | 33 | 1007.8 |
| 20260508231819 | 68 | 204 | 1.0 | 1.0 | 0.00 | 0.00 | 0.00 | 33 | 1007.8 |
| 20260508231319 | 68 | 123 | 1.0 | 1.0 | 0.00 | 0.00 | 0.00 | 33 | 1007.8 |
| 20260508230819 | 68 | 136 | 3.0 | 7.0 | 0.00 | 0.00 | 0.00 | 33 | 1008.1 |
| 20260508230321 | 68 | 53 | 3.0 | 5.0 | 0.00 | 0.00 | 0.00 | 33 | 1008.1 |
| 20260508225817 | 68 | 195 | 2.0 | 5.0 | 0.00 | 0.00 | 0.00 | 32 | 1008.1 |
| 20260508225320 | 68 | 346 | 5.0 | 6.0 | 0.00 | 0.00 | 0.00 | 32 | 1008.1 |
| 20260508224820 | 68 | 164 | 3.0 | 3.0 | 0.00 | 0.00 | 0.00 | 32 | 1007.8 |
| 20260508224318 | 68 | 262 | 2.0 | 5.0 | 0.00 | 0.00 | 0.00 | 32 | 1007.8 |
| 20260508223818 | 68 | 112 | 4.0 | 7.0 | 0.00 | 0.00 | 0.00 | 32 | 1007.8 |
| 20260508223317 | 69 | 75 | 5.0 | 9.0 | 0.00 | 0.00 | 0.00 | 32 | 1007.8 |
| 20260508222818 | 69 | 319 | 3.0 | 3.0 | 0.00 | 0.00 | 0.00 | 32 | 1007.5 |
| 20260508222317 | 69 | 13 | 3.0 | 7.0 | 0.00 | 0.00 | 0.00 | 32 | 1007.5 |
| 20260508221818 | 69 | 132 | 0.0 | 1.0 | 0.00 | 0.00 | 0.00 | 32 | 1007.5 |
| 20260508221317 | 69 | 23 | 6.0 | 8.0 | 0.00 | 0.00 | 0.00 | 32 | 1007.8 |
| 20260508220817 | 69 | 137 | 1.0 | 2.0 | 0.00 | 0.00 | 0.00 | 32 | 1007.8 |
| 20260508220315 | 69 | 137 | 4.0 | 6.0 | 0.00 | 0.00 | 0.00 | 32 | 1007.5 |
| 20260508215816 | 70 | 41 | 2.0 | 3.0 | 0.00 | 0.00 | 0.00 | 32 | 1007.5 |
| 20260508215317 | 70 | 108 | 2.0 | 3.0 | 0.00 | 0.00 | 0.00 | 32 | 1007.5 |
| 20260508214815 | 71 | 93 | 2.0 | 2.0 | 0.00 | 0.00 | 0.00 | 32 | 1007.5 |
| 20260508214315 | 71 | 66 | 4.0 | 6.0 | 0.00 | 0.00 | 0.00 | 32 | 1007.8 |
| 20260508213816 | 71 | 128 | 1.0 | 2.0 | 0.00 | 0.00 | 0.00 | 31 | 1007.8 |
| 20260508213315 | 71 | 94 | 2.0 | 2.0 | 0.00 | 0.00 | 0.00 | 31 | 1007.8 |
| 20260508212815 | 72 | 218 | 2.0 | 3.0 | 0.00 | 0.00 | 0.00 | 31 | 1007.5 |
| 20260508212315 | 72 | 111 | 3.0 | 5.0 | 0.00 | 0.00 | 0.00 | 30 | 1007.8 |
| 20260508211814 | 72 | 211 | 0.0 | 1.0 | 0.00 | 0.00 | 0.00 | 31 | 1007.8 |
| 20260508211316 | 72 | 234 | 2.0 | 2.0 | 0.00 | 0.00 | 0.00 | 31 | 1007.8 |
| 20260508210815 | 72 | 205 | 1.0 | 1.0 | 0.00 | 0.00 | 0.00 | 31 | 1007.5 |
| 20260508210314 | 71 | 92 | 3.0 | 5.0 | 0.00 | 0.00 | 0.00 | 31 | 1007.8 |
| 20260508205813 | 71 | 235 | 2.0 | 3.0 | 0.00 | 0.00 | 0.00 | 31 | 1007.8 |
| 20260508205312 | 71 | 304 | 1.0 | 1.0 | 0.00 | 0.00 | 0.00 | 31 | 1007.8 |
| 20260508204813 | 71 | 304 | 1.0 | 2.0 | 0.00 | 0.00 | 0.00 | 31 | 1007.5 |
| 20260508204312 | 71 | 118 | 3.0 | 3.0 | 0.00 | 0.00 | 0.00 | 31 | 1007.8 |
| 20260508203814 | 70 | 345 | 4.0 | 5.0 | 0.00 | 0.00 | 0.00 | 31 | 1007.8 |
| 20260508203313 | 70 | 261 | 2.0 | 3.0 | 0.00 | 0.00 | 0.00 | 32 | 1007.8 |
| 20260508202815 | 70 | 284 | 4.0 | 7.0 | 0.00 | 0.00 | 0.00 | 31 | 1007.8 |
| 20260508202314 | 70 | 206 | 1.0 | 1.0 | 0.00 | 0.00 | 0.00 | 32 | 1007.8 |
| 20260508201811 | 70 | 35 | 1.0 | 2.0 | 0.00 | 0.00 | 0.00 | 31 | 1007.8 |
| 20260508201315 | 70 | 330 | 4.0 | 5.0 | 0.00 | 0.00 | 0.00 | 32 | 1007.8 |
| 20260508200811 | 70 | 297 | 2.0 | 2.0 | 0.00 | 0.00 | 0.00 | 31 | 1007.8 |
| 20260508200312 | 70 | 252 | 2.0 | 3.0 | 0.00 | 0.00 | 0.00 | 32 | 1007.8 |
| 20260508195813 | 70 | 197 | 2.0 | 2.0 | 0.00 | 0.00 | 0.00 | 31 | 1008.1 |
| 20260508195314 | 70 | 287 | 4.0 | 8.0 | 0.00 | 0.00 | 0.00 | 32 | 1007.8 |
| 20260508194811 | 69 | 297 | 3.0 | 6.0 | 0.00 | 0.00 | 0.00 | 31 | 1008.1 |
| 20260508194312 | 69 | 177 | 0.0 | 0.0 | 0.00 | 0.00 | 0.00 | 31 | 1008.1 |
| 20260508193813 | 69 | 351 | 2.0 | 2.0 | 0.00 | 0.00 | 0.00 | 31 | 1008.1 |
| 20260508193312 | 69 | 230 | 2.0 | 3.0 | 0.00 | 0.00 | 0.00 | 31 | 1008.1 |
| 20260508192814 | 69 | 126 | 0.0 | 1.0 | 0.00 | 0.00 | 0.00 | 32 | 1008.1 |
| 20260508192309 | 69 | 168 | 1.0 | 2.0 | 0.00 | 0.00 | 0.00 | 31 | 1008.1 |
| 20260508191813 | 69 | 337 | 3.0 | 6.0 | 0.00 | 0.00 | 0.00 | 31 | 1008.1 |
| 20260508191310 | 69 | 6 | 2.0 | 2.0 | 0.00 | 0.00 | 0.00 | 31 | 1008.1 |
| 20260508190812 | 69 | 200 | 0.0 | 0.0 | 0.00 | 0.00 | 0.00 | 32 | 1008.1 |
| 20260508190311 | 69 | 238 | 0.0 | 1.0 | 0.00 | 0.00 | 0.00 | 31 | 1008.1 |
| 20260508185812 | 69 | 75 | 3.0 | 3.0 | 0.00 | 0.00 | 0.00 | 32 | 1008.5 |
| 20260508185313 | 69 | 7 | 3.0 | 3.0 | 0.00 | 0.00 | 0.00 | 32 | 1008.5 |
| 20260508184815 | 69 | 39 | 2.0 | 3.0 | 0.00 | 0.00 | 0.00 | 32 | 1008.1 |
| 20260508184312 | 69 | 194 | 3.0 | 5.0 | 0.00 | 0.00 | 0.00 | 31 | 1008.5 |
| 20260508183814 | 68 | 76 | 3.0 | 3.0 | 0.00 | 0.00 | 0.00 | 32 | 1008.5 |
| 20260508183312 | 68 | 239 | 0.0 | 1.0 | 0.00 | 0.00 | 0.00 | 31 | 1008.5 |
| 20260508182810 | 68 | 142 | 0.0 | 1.0 | 0.00 | 0.00 | 0.00 | 31 | 1008.5 |
| 20260508182312 | 68 | 2 | 3.0 | 3.0 | 0.00 | 0.00 | 0.00 | 31 | 1008.5 |
| 20260508181813 | 68 | 162 | 2.0 | 2.0 | 0.00 | 0.00 | 0.00 | 32 | 1008.1 |
| 20260508181310 | 67 | 222 | 1.0 | 1.0 | 0.00 | 0.00 | 0.00 | 32 | 1008.5 |
| 20260508180812 | 67 | 314 | 3.0 | 3.0 | 0.00 | 0.00 | 0.00 | 33 | 1008.8 |
| 20260508180312 | 67 | 315 | 5.0 | 7.0 | 0.00 | 0.00 | 0.00 | 33 | 1008.5 |
| 20260508175813 | 67 | 254 | 0.0 | 1.0 | 0.00 | 0.00 | 0.00 | 32 | 1008.5 |
| 20260508175311 | 66 | 152 | 3.0 | 5.0 | 0.00 | 0.00 | 0.00 | 33 | 1008.5 |
| 20260508174814 | 66 | 64 | 2.0 | 3.0 | 0.00 | 0.00 | 0.00 | 33 | 1008.5 |
| 20260508174310 | 66 | 114 | 1.0 | 2.0 | 0.00 | 0.00 | 0.00 | 33 | 1008.5 |
| 20260508173813 | 66 | 256 | 3.0 | 5.0 | 0.00 | 0.00 | 0.00 | 34 | 1008.5 |
| 20260508173313 | 66 | 222 | 2.0 | 3.0 | 0.00 | 0.00 | 0.00 | 34 | 1008.8 |
| 20260508172821 | 65 | 257 | 1.0 | 1.0 | 0.00 | 0.00 | 0.00 | 34 | 1008.8 |
| 20260508172321 | 65 | 89 | 0.0 | 1.0 | 0.00 | 0.00 | 0.00 | 34 | 1008.5 |
| 20260508171820 | 65 | 79 | 3.0 | 5.0 | 0.00 | 0.00 | 0.00 | 35 | 1008.5 |
| 20260508171321 | 65 | 100 | 0.0 | 1.0 | 0.00 | 0.00 | 0.00 | 34 | 1008.5 |
| 20260508170822 | 65 | 315 | 4.0 | 6.0 | 0.00 | 0.00 | 0.00 | 34 | 1008.8 |
| 20260508170322 | 65 | 334 | 2.0 | 3.0 | 0.00 | 0.00 | 0.00 | 34 | 1008.5 |
| 20260508165819 | 65 | 210 | 1.0 | 2.0 | 0.00 | 0.00 | 0.00 | 35 | 1008.8 |
| 20260508165321 | 65 | 107 | 1.0 | 2.0 | 0.00 | 0.00 | 0.00 | 34 | 1008.8 |
| 20260508164819 | 64 | 49 | 3.0 | 6.0 | 0.00 | 0.00 | 0.00 | 35 | 1008.8 |
| 20260508164319 | 64 | 345 | 5.0 | 7.0 | 0.00 | 0.00 | 0.00 | 34 | 1008.8 |
| 20260508163819 | 63 | 221 | 1.0 | 1.0 | 0.00 | 0.00 | 0.00 | 35 | 1008.8 |
| 20260508163320 | 63 | 301 | 4.0 | 7.0 | 0.00 | 0.00 | 0.00 | 36 | 1008.8 |
| 20260508162821 | 62 | 281 | 5.0 | 7.0 | 0.00 | 0.00 | 0.00 | 36 | 1009.1 |
| 20260508162318 | 61 | 261 | 1.0 | 1.0 | 0.00 | 0.00 | 0.00 | 38 | 1008.8 |
| 20260508161819 | 61 | 79 | 2.0 | 2.0 | 0.00 | 0.00 | 0.00 | 39 | 1008.8 |
| 20260508161317 | 60 | 333 | 5.0 | 6.0 | 0.00 | 0.00 | 0.00 | 39 | 1008.8 |
| 20260508160818 | 60 | 136 | 1.0 | 3.0 | 0.00 | 0.00 | 0.00 | 39 | 1008.8 |
| 20260508160317 | 60 | 275 | 2.0 | 5.0 | 0.00 | 0.00 | 0.00 | 39 | 1008.8 |
| 20260508155818 | 60 | 322 | 6.0 | 7.0 | 0.00 | 0.00 | 0.00 | 40 | 1008.8 |
| 20260508155319 | 60 | 279 | 6.0 | 7.0 | 0.00 | 0.00 | 0.00 | 40 | 1008.8 |
| 20260508154816 | 60 | 261 | 2.0 | 2.0 | 0.00 | 0.00 | 0.00 | 40 | 1008.8 |
| 20260508154317 | 59 | 266 | 3.0 | 5.0 | 0.00 | 0.00 | 0.00 | 41 | 1008.8 |
| 20260508153816 | 59 | 351 | 4.0 | 6.0 | 0.00 | 0.00 | 0.00 | 41 | 1008.8 |
| 20260508153316 | 59 | 257 | 1.0 | 2.0 | 0.00 | 0.00 | 0.00 | 40 | 1008.8 |
| 20260508152816 | 58 | 189 | 3.0 | 5.0 | 0.00 | 0.00 | 0.00 | 41 | 1008.8 |
| 20260508152315 | 58 | 271 | 2.0 | 2.0 | 0.00 | 0.00 | 0.00 | 41 | 1008.8 |
| 20260508151815 | 58 | 279 | 0.0 | 1.0 | 0.00 | 0.00 | 0.00 | 41 | 1008.8 |
| 20260508151316 | 57 | 193 | 3.0 | 5.0 | 0.00 | 0.00 | 0.00 | 42 | 1008.8 |
| 20260508150816 | 57 | 304 | 3.0 | 5.0 | 0.00 | 0.00 | 0.00 | 42 | 1008.5 |
| 20260508150316 | 57 | 273 | 4.0 | 6.0 | 0.00 | 0.00 | 0.00 | 42 | 1008.5 |
| 20260508145815 | 56 | 312 | 4.0 | 5.0 | 0.00 | 0.00 | 0.00 | 42 | 1008.8 |
| 20260508145316 | 56 | 285 | 4.0 | 5.0 | 0.00 | 0.00 | 0.00 | 43 | 1008.8 |
| 20260508144815 | 55 | 287 | 3.0 | 5.0 | 0.00 | 0.00 | 0.00 | 43 | 1008.5 |
| 20260508144318 | 55 | 249 | 1.0 | 2.0 | 0.00 | 0.00 | 0.00 | 43 | 1008.8 |
| 20260508143813 | 54 | 295 | 4.0 | 5.0 | 0.00 | 0.00 | 0.00 | 43 | 1008.5 |
| 20260508143314 | 54 | 213 | 2.0 | 2.0 | 0.00 | 0.00 | 0.00 | 44 | 1008.5 |
| 20260508142814 | 54 | 237 | 2.0 | 2.0 | 0.00 | 0.00 | 0.00 | 45 | 1008.8 |
| 20260508142313 | 53 | 289 | 1.0 | 2.0 | 0.00 | 0.00 | 0.00 | 45 | 1008.8 |
| 20260508141816 | 53 | 334 | 5.0 | 8.0 | 0.00 | 0.00 | 0.00 | 45 | 1008.8 |
| 20260508141312 | 53 | 175 | 1.0 | 2.0 | 0.00 | 0.00 | 0.00 | 46 | 1008.5 |
| 20260508140814 | 53 | 293 | 5.0 | 6.0 | 0.00 | 0.00 | 0.00 | 46 | 1008.5 |
| 20260508140314 | 52 | 343 | 6.0 | 7.0 | 0.00 | 0.00 | 0.00 | 46 | 1008.8 |
| 20260508135813 | 52 | 240 | 2.0 | 3.0 | 0.00 | 0.00 | 0.00 | 48 | 1008.8 |
| 20260508135313 | 51 | 280 | 1.0 | 2.0 | 0.00 | 0.00 | 0.00 | 48 | 1008.5 |
| 20260508134811 | 51 | 275 | 2.0 | 3.0 | 0.00 | 0.00 | 0.00 | 48 | 1008.8 |
| 20260508134314 | 51 | 234 | 1.0 | 2.0 | 0.00 | 0.00 | 0.00 | 49 | 1008.5 |
| 20260508133814 | 50 | 282 | 2.0 | 2.0 | 0.00 | 0.00 | 0.00 | 49 | 1008.8 |
| 20260508133312 | 50 | 268 | 1.0 | 2.0 | 0.00 | 0.00 | 0.00 | 50 | 1008.8 |
| 20260508132813 | 50 | 310 | 3.0 | 3.0 | 0.00 | 0.00 | 0.00 | 50 | 1008.8 |
| 20260508132313 | 50 | 244 | 2.0 | 2.0 | 0.00 | 0.00 | 0.00 | 51 | 1008.5 |
| 20260508131812 | 49 | 256 | 1.0 | 1.0 | 0.00 | 0.00 | 0.00 | 52 | 1008.8 |
| 20260508131242 | 49 | 305 | 1.0 | 3.0 | 0.00 | 0.00 | 0.00 | 52 | 1008.5 |
| 20260508130741 | 49 | 246 | 2.0 | 3.0 | 0.00 | 0.00 | 0.00 | 53 | 1008.8 |
| 20260508130239 | 49 | 214 | 0.0 | 0.0 | 0.00 | 0.00 | 0.00 | 54 | 1008.5 |
| 20260508125741 | 49 | 300 | 1.0 | 2.0 | 0.00 | 0.00 | 0.00 | 54 | 1008.8 |
| 20260508125235 | 49 | 355 | 1.0 | 2.0 | 0.00 | 0.00 | 0.00 | 54 | 1008.5 |
| 20260508124741 | 49 | 291 | 2.0 | 3.0 | 0.00 | 0.00 | 0.00 | 54 | 1008.5 |
| 20260508124243 | 49 | 298 | 2.0 | 2.0 | 0.00 | 0.00 | 0.00 | 53 | 1008.8 |
| 20260508123741 | 49 | 269 | 4.0 | 5.0 | 0.00 | 0.00 | 0.00 | 52 | 1008.5 |
| 20260508123238 | 49 | 239 | 1.0 | 1.0 | 0.00 | 0.00 | 0.00 | 52 | 1008.8 |
| 20260508122714 | 48 | 231 | 1.0 | 1.0 | 0.00 | 0.00 | 0.00 | 53 | 1008.5 |
| 20260508122213 | 48 | 231 | 1.0 | 1.0 | 0.00 | 0.00 | 0.00 | 54 | 1008.5 |
| 20260508121712 | 47 | 298 | 3.0 | 3.0 | 0.00 | 0.00 | 0.00 | 54 | 1008.5 |
| 20260508121212 | 46 | 285 | 2.0 | 2.0 | 0.00 | 0.00 | 0.00 | 54 | 1008.5 |
| 20260508120711 | 45 | 286 | 2.0 | 2.0 | 0.00 | 0.00 | 0.00 | 55 | 1008.5 |
| 20260508120211 | 45 | 262 | 1.0 | 2.0 | 0.00 | 0.00 | 0.00 | 57 | 1008.5 |
| 20260508115711 | 44 | 233 | 0.0 | 1.0 | 0.00 | 0.00 | 0.00 | 59 | 1008.5 |
| 20260508115212 | 44 | 238 | 0.0 | 0.0 | 0.00 | 0.00 | 0.00 | 62 | 1008.5 |
| 20260508114713 | 43 | 251 | 0.0 | 0.0 | 0.00 | 0.00 | 0.00 | 66 | 1008.5 |
| 20260508114213 | 43 | 235 | 0.0 | 0.0 | 0.00 | 0.00 | 0.00 | 69 | 1008.5 |
| 20260508113713 | 44 | 235 | 0.0 | 0.0 | 0.00 | 0.00 | 0.00 | 70 | 1008.5 |
| 20260508113210 | 44 | 235 | 0.0 | 0.0 | 0.00 | 0.00 | 0.00 | 69 | 1008.5 |
| 20260508112713 | 44 | 235 | 0.0 | 0.0 | 0.00 | 0.00 | 0.00 | 69 | 1008.5 |
| 20260508112212 | 44 | 236 | 0.0 | 0.0 | 0.00 | 0.00 | 0.00 | 71 | 1008.5 |
| 20260508111710 | 44 | 236 | 0.0 | 0.0 | 0.00 | 0.00 | 0.00 | 71 | 1008.5 |